Theta_e
362 363 365 366 362 354 345 342 343 345 345 346 347 347 348 350 350 350 351 351 350 350 350 349 348 348 350 349 350 351 351 353 352 352 352 353 352 352 352 353 355 355 353 353 354 354 354 354 355 355 354 352 352 354 355 355 355 355 356 356 356 356 355
360 362 364 362 363 364 354 345 344 344 344 346 347 347 347 349 350 350 351 351 350 350 350 350 349 348 349 349 350 351 351 354 354 354 354 354 353 353 353 353 353 354 354 352 352 353 353 354 355 355 354 352 351 353 355 355 355 355 356 357 356 356 356
360 361 363 361 361 362 355 349 347 344 344 345 347 347 348 349 350 349 350 350 351 350 350 350 350 349 349 349 350 350 350 353 355 356 354 354 354 353 353 353 352 353 353 353 353 353 353 354 355 354 353 351 351 354 356 355 354 354 356 357 358 357 357
359 359 360 361 360 357 352 350 350 347 345 345 345 347 348 349 350 350 350 350 350 351 351 350 350 350 350 349 349 349 349 351 353 355 355 354 354 353 352 352 352 352 353 353 353 352 352 353 354 355 354 353 353 354 355 356 355 354 355 356 357 358 359
358 358 359 360 361 360 355 350 351 351 348 347 346 346 347 348 350 350 350 350 351 350 351 351 351 351 351 351 350 350 349 349 351 353 353 353 352 352 353 353 352 352 352 353 354 353 353 353 354 355 354 354 354 355 355 356 357 356 355 355 355 357 358
354 354 356 358 359 359 356 352 352 351 350 351 349 347 347 348 350 351 351 351 352 351 351 352 353 352 352 351 350 350 350 348 348 351 352 353 352 352 353 353 353 352 353 354 355 355 354 354 354 355 355 355 355 355 355 355 356 356 357 357 355 355 355
349 350 354 357 358 358 357 354 353 351 351 352 352 352 351 349 349 351 352 352 353 352 351 352 353 353 352 353 352 352 350 348 347 349 352 353 353 353 353 353 353 353 354 355 356 357 356 356 355 355 356 356 356 356 356 355 355 356 357 358 355 353 353
348 350 353 355 356 356 356 356 354 353 352 353 353 353 353 353 353 352 352 352 353 353 352 352 353 352 352 352 353 352 351 349 347 348 351 352 353 354 353 354 353 354 354 355 356 357 357 357 356 356 357 358 356 356 356 355 354 354 356 357 354 352 351
347 349 353 353 353 354 355 355 355 355 354 353 353 353 353 354 354 353 353 352 353 354 353 353 353 354 353 354 354 353 353 352 350 348 349 351 353 353 354 353 354 354 354 355 356 357 357 357 357 356 356 356 356 355 355 355 354 354 355 356 354 353 352
345 346 349 351 353 353 353 353 353 353 352 353 353 353 352 353 354 354 353 352 352 354 355 355 355 356 356 356 355 355 354 354 353 351 350 350 351 352 352 353 353 354 355 356 356 356 356 356 357 356 356 355 354 354 354 354 354 354 355 355 355 354 353
343 344 345 347 349 349 349 350 350 349 349 351 352 352 352 352 352 352 353 353 354 354 356 356 356 357 358 357 357 356 355 355 355 354 353 352 352 352 352 352 352 353 355 355 355 355 355 355 356 356 355 354 353 353 353 354 354 354 354 354 354 354 354
341 342 343 343 343 344 345 347 348 349 349 349 350 352 352 352 350 349 350 352 353 353 355 356 355 357 358 358 358 357 357 356 355 355 355 354 354 354 353 353 353 353 354 354 353 354 354 353 354 354 354 354 353 352 352 352 353 353 353 353 354 353 353
339 339 340 340 341 342 342 342 344 347 348 349 350 350 350 349 349 350 350 351 351 351 353 356 355 355 356 357 358 358 358 357 357 357 357 357 356 355 355 354 354 354 354 353 353 354 354 352 352 351 352 353 353 352 351 351 351 352 352 351 351 351 352
338 337 337 338 340 341 341 340 341 343 346 348 349 350 350 350 350 351 352 352 352 351 352 354 353 352 355 356 356 356 357 357 356 356 356 357 356 356 356 355 355 355 354 354 355 354 354 353 352 350 350 351 351 351 351 350 351 351 350 349 349 349 350
337 336 337 337 337 337 338 339 339 340 341 343 345 347 349 349 350 351 351 351 352 351 351 352 351 351 353 353 352 352 354 354 354 355 355 356 356 356 356 355 355 355 355 355 355 355 355 353 352 351 350 350 350 350 351 351 350 350 350 349 349 349 349
337 336 336 336 335 335 336 337 338 338 339 340 341 343 345 346 347 347 348 349 349 350 351 352 353 351 351 351 349 349 349 350 351 351 352 353 354 353 354 354 354 353 354 355 354 353 352 352 351 351 351 350 350 350 350 350 350 349 349 349 348 348 349
336 336 336 335 335 334 334 335 336 336 337 338 339 341 342 342 343 344 344 345 345 345 348 350 351 351 350 350 349 349 349 349 349 349 350 351 351 351 350 351 352 351 351 352 353 352 352 351 350 350 350 350 350 350 350 350 350 349 348 348 348 348 347
336 335 335 334 334 334 333 333 334 335 336 338 338 340 340 340 340 341 342 342 340 340 342 344 345 345 346 346 347 349 351 352 351 352 351 351 351 351 350 349 350 350 349 349 350 352 351 351 351 350 349 350 350 350 350 350 349 349 349 348 348 348 348
335 334 333 333 333 333 332 331 331 334 336 337 338 337 337 337 338 339 339 339 339 339 339 339 339 340 341 341 342 344 346 349 350 351 352 351 351 351 351 349 350 350 349 349 349 352 353 353 352 352 351 350 349 349 349 349 349 349 349 348 349 348 348
332 332 331 331 331 330 328 327 328 332 335 336 335 334 332 332 334 334 334 333 334 336 337 337 337 337 338 339 338 339 341 342 344 345 346 347 347 348 349 349 349 349 349 350 351 351 352 353 354 354 354 352 350 349 349 348 348 348 348 348 347 347 348
330 330 330 331 330 328 325 324 326 331 334 335 335 334 333 332 331 331 330 329 330 331 332 334 335 335 336 338 339 340 340 340 341 343 343 344 345 345 346 346 346 345 346 348 351 351 350 352 354 354 354 354 353 352 350 348 348 348 348 348 347 348 348
328 327 327 327 326 325 324 324 327 330 333 333 334 335 333 332 331 331 331 331 330 329 329 330 332 333 333 334 336 337 337 336 336 339 341 341 342 342 343 344 344 343 343 345 347 350 350 351 353 354 354 354 353 353 353 352 351 350 349 350 350 350 350
325 323 322 322 323 324 324 326 329 331 332 332 333 334 334 333 332 332 331 332 331 331 330 329 329 331 331 331 331 331 332 332 334 334 335 336 337 338 340 342 344 344 344 343 345 348 350 351 353 353 354 354 354 354 354 353 353 352 352 351 351 351 351
321 321 321 322 322 323 324 326 328 329 330 330 329 330 332 331 330 330 330 330 331 331 331 330 329 329 330 331 330 328 327 328 330 331 332 333 333 334 335 338 340 343 345 346 347 347 349 350 353 354 355 355 355 355 355 355 355 355 355 355 354 354 353
320 321 321 321 322 322 323 324 325 327 327 327 326 326 327 328 327 327 326 327 329 329 328 327 327 327 328 331 331 329 327 325 325 327 331 331 331 332 333 334 337 341 346 349 348 346 345 347 350 353 353 353 355 355 355 355 355 356 356 356 355 355 354
320 320 320 321 321 322 322 322 322 323 323 323 324 324 325 326 325 325 324 324 326 326 325 324 325 327 329 330 330 330 328 326 323 324 327 329 329 331 332 335 339 343 346 346 344 341 340 339 341 341 341 342 344 344 345 347 349 351 354 355 355 355 355
320 320 319 320 321 321 321 321 321 321 320 321 322 322 323 324 323 323 322 322 322 322 322 323 324 326 328 329 329 328 328 328 325 323 324 327 328 331 333 338 344 347 346 344 340 336 335 335 335 333 331 331 332 333 334 337 338 340 343 346 349 352 353
320 320 319 320 320 320 320 320 319 320 319 319 320 320 321 321 321 320 320 320 320 319 320 322 322 324 325 326 327 327 328 328 326 323 324 326 328 330 332 334 339 342 341 338 334 332 333 333 333 332 331 330 331 331 332 332 332 331 332 334 339 344 347
318 318 318 319 320 319 319 319 319 318 318 318 318 318 318 318 318 318 318 318 319 318 318 320 321 322 323 324 324 325 327 328 327 325 325 326 328 330 330 330 331 332 331 331 331 330 331 332 332 332 331 331 331 331 332 332 330 328 329 330 333 336 339
316 317 318 319 319 318 319 318 318 317 317 317 317 317 316 317 317 317 317 318 318 318 317 317 318 319 321 322 323 324 325 326 327 326 325 326 327 328 329 328 327 326 325 326 328 330 330 330 331 331 331 331 332 331 332 332 330 328 328 329 331 331 334
316 317 318 318 318 318 318 317 317 317 316 317 317 316 317 317 317 317 318 318 318 318 318 317 316 316 318 320 321 322 323 324 326 326 326 326 327 328 328 327 326 324 322 322 324 328 329 329 329 329 329 329 329 329 329 329 327 326 327 330 331 331 332
316 317 318 318 318 318 317 317 316 316 316 316 317 316 316 316 316 316 317 317 318 318 318 318 317 317 317 318 319 320 321 322 324 325 326 326 326 327 327 326 324 323 321 320 322 326 329 329 328 328 327 327 325 324 324 322 322 325 328 330 330 330 331
316 317 317 317 317 316 316 316 315 315 316 316 316 316 316 315 315 316 316 317 317 318 318 318 318 318 318 318 318 319 320 321 322 323 325 326 326 326 326 325 323 322 321 320 323 326 328 327 326 326 325 324 321 320 320 321 323 327 329 329 328 329 330
316 316 316 316 316 315 315 315 315 316 316 315 315 315 315 315 316 317 317 317 317 317 317 317 318 318 318 319 318 318 319 319 320 322 324 325 326 326 325 324 323 322 321 322 325 327 326 325 325 324 322 320 320 320 322 324 326 328 328 328 329 329 329
316 316 316 315 315 315 314 314 315 316 316 315 315 315 315 317 318 319 318 318 318 318 318 318 318 318 318 319 318 318 318 318 319 320 322 324 325 325 324 323 323 322 321 322 325 326 325 324 324 323 321 319 320 322 324 325 327 328 328 329 330 331 331
315 316 316 315 315 314 314 314 315 315 315 315 315 316 317 318 319 319 319 318 318 318 318 318 319 318 318 319 319 319 319 318 319 320 321 323 325 325 324 323 323 322 321 322 324 325 325 324 324 322 320 319 320 323 324 325 326 327 328 329 330 330 331
315 315 315 314 314 313 314 315 315 315 315 315 315 317 318 318 318 318 317 317 317 317 317 318 318 318 319 319 320 321 321 321 321 322 322 323 325 325 325 324 324 323 323 323 324 324 324 324 322 320 319 319 320 323 326 326 325 326 326 327 327 327 328
315 314 314 313 312 313 315 315 315 314 314 315 315 316 317 317 317 316 316 316 315 315 316 316 317 317 317 319 320 322 322 322 323 323 323 324 325 325 325 325 324 323 323 324 324 324 324 322 320 318 318 318 320 324 327 327 324 323 324 324 324 324 325
Wind_Speed
4 3 2 3 5 5 7 15 21 23 26 28 29 29 30 30 31 31 31 32 32 31 29 27 27 28 27 24 21 20 19 18 18 19 18 18 19 20 20 20 19 18 18 18 17 16 14 13 12 12 11 12 12 12 11 11 10 9 9 9 10 10 9
5 4 2 1 4 5 5 10 17 19 22 25 28 30 30 30 31 32 32 33 33 31 31 29 28 29 28 26 23 22 21 19 19 19 19 19 19 19 20 20 20 20 18 17 16 16 14 13 13 13 12 13 12 12 12 11 11 10 10 10 9 9 9
6 5 4 2 3 4 6 10 13 17 20 22 24 28 30 31 34 34 34 34 33 31 31 31 30 29 29 27 26 24 23 22 21 20 20 20 20 19 18 19 20 20 19 18 16 15 15 14 13 13 13 14 13 12 12 11 11 11 11 10 9 8 8
7 6 5 3 3 4 7 12 14 17 20 22 24 26 29 32 34 34 33 33 33 32 32 33 32 31 30 29 28 27 26 25 24 22 21 20 20 20 18 19 20 20 20 19 18 16 15 14 14 13 14 15 14 13 12 12 12 12 12 11 10 9 9
7 6 5 5 4 4 5 10 13 15 17 20 22 25 28 30 31 30 29 30 32 33 34 34 33 33 32 30 30 28 27 27 27 25 22 20 19 20 21 20 19 20 20 19 18 18 16 16 16 15 15 15 15 14 13 13 13 12 12 12 12 12 12
6 6 5 5 5 4 5 8 11 13 15 17 19 21 24 26 27 27 26 26 28 29 28 28 29 31 31 31 30 29 28 27 28 28 25 21 20 21 22 22 21 20 20 19 19 18 18 18 17 17 17 17 16 16 15 15 14 13 13 12 13 13 13
5 4 5 5 4 4 5 8 9 11 14 15 15 15 18 22 25 26 24 25 26 26 26 26 28 28 29 31 30 30 29 27 28 30 27 23 21 21 22 23 22 21 21 20 19 19 19 20 20 19 18 18 18 18 17 17 16 15 14 13 14 14 13
5 3 5 7 6 5 6 8 9 10 12 13 12 13 13 14 17 19 19 19 20 22 25 27 28 30 30 31 31 31 30 28 28 30 29 26 23 22 22 22 23 22 21 22 21 20 20 20 21 21 20 20 19 19 19 18 17 16 15 15 14 14 14
5 4 5 7 7 6 7 9 10 12 11 11 11 12 14 14 16 19 22 22 20 20 22 23 25 28 29 28 28 28 28 27 27 28 29 28 26 25 24 23 23 22 22 22 22 22 22 21 21 22 22 21 20 19 20 20 19 17 16 16 15 15 15
5 5 6 6 6 7 9 11 12 14 13 11 11 12 13 13 16 18 20 23 24 21 19 19 20 21 22 23 25 27 27 26 25 26 28 29 28 27 26 25 25 23 23 23 23 23 24 23 23 22 23 22 21 21 21 21 21 19 18 18 17 17 16
5 7 7 6 6 7 9 10 12 14 13 11 11 11 11 11 12 11 11 15 19 16 16 19 19 18 20 23 25 27 27 25 25 25 27 28 28 28 28 27 26 26 25 25 24 24 25 25 24 24 24 25 24 23 23 23 22 21 21 20 19 19 18
6 7 7 6 6 8 8 7 8 12 12 9 7 8 9 10 11 11 11 13 15 15 18 21 20 18 21 25 26 26 27 27 27 28 28 28 27 27 27 27 27 27 27 27 26 26 26 26 26 26 26 26 26 26 25 25 24 24 23 22 22 22 21
7 7 7 6 7 7 7 7 8 11 13 10 6 4 3 7 9 10 12 12 13 16 21 23 19 15 16 22 24 26 27 28 29 29 28 27 26 25 25 26 27 27 27 27 27 27 28 28 28 28 28 28 27 27 27 26 26 25 24 23 23 23 23
8 8 7 7 8 7 7 8 10 13 14 11 8 6 5 7 9 11 12 12 11 13 17 17 16 15 17 20 20 23 26 29 28 26 24 23 23 23 24 24 26 27 28 28 28 29 29 29 29 29 28 28 28 28 28 27 27 27 26 24 23 23 24
9 8 8 9 8 8 8 8 10 13 14 12 12 12 12 13 13 13 13 12 10 9 10 10 9 11 17 20 18 18 22 25 26 24 22 21 21 21 21 21 22 24 28 30 30 29 29 28 29 30 30 30 29 29 29 29 29 28 28 27 25 24 24
10 8 8 9 8 7 8 9 11 14 15 15 14 14 15 16 15 14 13 11 8 7 6 8 9 9 11 13 15 17 19 20 20 20 20 21 22 21 20 19 19 19 23 27 29 29 28 28 29 30 31 32 31 30 30 30 30 30 29 29 28 27 27
10 9 8 8 8 7 7 8 11 14 15 15 15 16 17 17 17 17 16 14 11 11 10 8 8 7 6 6 7 11 14 13 12 11 12 14 17 18 19 19 19 17 18 21 23 23 23 23 25 27 29 31 32 31 31 31 32 31 31 30 30 29 29
9 8 8 8 8 8 7 7 10 14 15 16 16 17 17 17 19 19 18 18 15 13 13 13 11 11 10 8 7 6 5 4 3 3 2 3 6 10 15 17 18 19 22 25 23 20 19 18 19 21 24 26 29 30 30 31 32 31 31 31 31 31 31
9 8 8 8 8 8 8 8 12 14 16 17 19 19 18 19 20 19 18 19 18 16 16 16 15 15 13 11 11 11 11 11 9 7 4 3 3 3 7 11 12 14 20 25 24 20 18 19 17 17 18 20 23 26 28 30 30 31 31 30 31 31 32
9 8 7 8 8 8 9 12 14 16 18 19 20 20 20 20 20 20 20 20 20 18 19 19 19 20 19 15 12 9 11 13 14 12 10 7 7 6 1 7 7 9 12 16 16 15 15 16 17 17 16 17 19 21 23 25 26 27 27 28 29 30 31
9 9 7 6 7 8 11 14 16 17 18 18 18 19 20 20 20 21 21 22 23 21 20 20 21 22 22 20 15 12 13 15 15 14 14 13 11 10 5 1 4 8 10 10 10 11 12 12 13 14 14 15 15 17 18 19 19 19 21 22 24 25 28
9 9 7 8 9 11 13 16 18 18 18 17 17 17 17 17 17 19 20 20 22 23 22 22 22 22 21 21 18 15 15 16 15 14 13 12 11 11 8 6 5 6 8 9 8 8 10 10 8 8 9 10 11 12 14 15 15 16 17 18 19 19 21
10 10 12 15 17 17 18 19 20 20 20 18 17 16 14 14 15 17 18 18 18 19 20 21 21 20 19 19 18 15 14 14 14 14 13 12 11 11 9 7 7 8 7 8 7 6 6 7 5 4 5 6 6 8 9 10 11 14 16 17 17 17 18
14 15 16 20 21 21 21 22 22 22 21 20 18 16 14 14 14 15 16 17 16 16 17 18 18 17 16 15 15 15 14 13 14 14 14 14 14 13 11 10 8 7 7 7 5 4 4 5 5 5 5 6 6 7 8 8 8 9 10 11 11 12 15
16 19 20 21 23 23 22 22 23 22 21 20 18 16 14 14 14 15 16 16 15 16 17 17 16 15 13 11 11 12 13 13 14 15 15 16 16 14 12 12 10 7 5 6 6 6 8 9 8 8 8 7 7 7 7 7 7 7 8 7 7 8 10
17 20 21 22 23 23 22 22 21 20 19 18 15 13 12 12 12 14 14 14 14 15 16 16 15 14 12 9 9 10 12 12 13 14 15 16 16 14 12 12 11 8 7 8 10 12 13 14 13 12 12 12 11 9 9 10 9 8 7 7 6 6 7
20 21 22 22 23 23 23 22 21 20 18 15 13 12 11 10 12 13 12 12 13 14 14 13 12 11 10 9 8 9 10 11 12 13 14 15 15 13 12 13 12 11 10 12 14 15 16 17 16 16 15 16 15 13 11 11 13 12 10 9 9 8 7
20 21 21 22 23 23 23 22 21 20 17 14 12 10 9 8 10 11 10 10 12 12 11 10 9 9 9 8 8 9 9 9 11 12 13 13 13 12 12 13 14 13 13 13 14 16 17 17 17 17 17 17 18 17 15 13 14 14 13 11 11 11 10
19 19 20 22 22 21 21 21 19 18 16 14 12 10 9 8 9 10 10 10 11 11 10 9 9 8 8 8 8 9 9 8 9 10 12 13 12 11 11 12 13 13 14 15 15 16 17 18 18 18 18 18 18 18 18 17 16 16 15 13 13 13 12
19 20 20 22 21 20 19 20 18 16 15 13 11 11 9 8 8 9 9 10 9 9 10 10 10 9 9 9 10 10 9 9 8 8 10 12 11 10 11 12 13 14 15 16 16 17 18 19 19 18 19 20 19 19 20 20 20 19 18 17 17 17 16
19 21 21 21 21 20 19 19 18 16 14 11 10 10 9 8 8 9 10 9 8 8 9 11 11 11 10 10 11 11 11 10 8 7 9 11 10 10 11 12 14 15 17 17 16 17 18 18 18 19 19 20 21 22 22 22 23 22 22 22 21 20 18
19 21 22 22 21 19 18 16 15 13 13 11 9 9 8 8 8 9 9 8 7 7 7 8 10 11 11 11 11 11 12 11 10 9 9 9 9 9 10 12 14 16 17 17 16 16 16 16 17 19 20 21 22 23 24 24 24 23 23 23 22 21 19
17 19 21 21 19 17 15 14 12 11 11 11 9 8 7 8 9 9 9 8 7 7 6 6 8 9 10 11 11 12 12 12 12 12 11 9 9 10 11 12 14 15 16 16 16 15 15 16 17 18 20 22 24 25 25 24 24 23 23 24 23 22 20
18 19 20 18 16 14 12 12 11 11 10 9 8 7 7 8 9 9 9 8 8 7 6 7 7 8 8 10 11 12 12 12 13 13 13 11 9 9 11 11 12 13 14 14 13 13 13 15 17 18 20 21 23 24 24 24 24 24 24 24 24 23 21
19 20 19 17 14 12 10 11 11 10 9 8 7 7 7 8 8 9 9 9 8 7 7 7 8 8 8 9 10 11 12 13 12 13 13 12 9 8 9 10 10 11 11 10 10 10 12 14 16 17 19 20 20 20 22 23 23 22 22 22 21 20 18
20 19 18 16 12 11 11 11 11 10 8 7 6 6 6 7 8 8 9 10 10 9 8 8 8 9 10 10 10 11 12 12 12 12 13 12 10 8 8 8 8 9 10 9 9 10 12 14 16 17 17 17 16 17 18 19 19 19 19 19 18 16 14
22 20 18 16 13 12 13 13 12 10 9 7 6 6 6 6 7 7 9 10 11 11 11 11 11 11 11 12 12 12 12 12 11 11 11 10 9 9 9 8 8 9 9 10 10 11 11 13 15 15 14 14 16 16 14 15 17 18 19 19 19 17 16
24 22 19 16 15 15 15 14 13 11 9 8 6 5 5 4 5 6 7 9 10 11 12 12 12 13 13 14 14 13 12 11 10 9 9 8 8 8 8 8 9 10 10 10 10 11 12 13 14 13 12 14 16 15 12 14 18 19 19 20 20 19 19
Wind_Direction
146 158 166 112 118 147 181 185 183 180 180 182 183 184 184 186 187 188 190 194 197 199 199 201 204 207 211 215 215 215 216 216 215 215 216 218 220 223 224 224 224 221 217 215 217 218 220 221 222 222 218 219 221 220 223 224 221 220 223 228 231 237 247
164 164 181 117 112 123 152 177 184 185 184 185 185 185 186 187 188 189 192 194 197 199 200 201 203 207 212 215 215 214 215 216 214 214 218 221 224 227 229 229 228 226 222 221 222 222 223 223 224 222 217 217 219 218 220 221 218 219 221 226 232 238 246
172 168 174 175 139 140 134 141 165 183 188 189 188 187 188 190 191 193 194 194 196 199 201 201 204 206 210 214 216 216 216 216 215 216 222 226 227 230 232 231 231 230 227 225 227 228 228 225 223 223 219 216 215 213 215 217 218 219 220 227 237 243 247
164 160 163 161 154 170 147 133 148 172 185 190 191 192 193 194 195 195 195 195 195 198 200 202 204 206 209 212 215 217 218 218 217 219 225 230 232 232 230 230 232 232 230 230 231 232 232 228 226 228 225 219 217 216 216 218 219 222 223 228 239 246 245
153 144 147 161 172 184 156 138 144 157 170 183 190 195 198 198 197 197 197 198 198 200 203 203 204 205 208 211 214 216 219 220 219 221 225 229 234 234 231 230 232 233 234 235 235 234 234 233 232 235 232 227 226 227 226 225 223 225 228 232 239 244 244
138 134 143 164 176 178 160 149 148 145 149 164 178 191 198 199 199 198 197 199 200 202 204 203 204 205 207 210 213 216 219 219 218 219 223 227 231 234 233 233 233 234 236 238 239 239 238 238 238 239 237 235 235 236 236 234 231 228 230 237 241 242 243
116 124 129 139 156 158 158 160 158 146 143 150 158 170 185 194 198 198 199 200 200 202 203 204 206 207 208 211 213 216 218 218 217 216 220 224 228 232 233 233 234 235 238 240 240 242 243 242 242 241 241 242 242 244 242 240 238 235 234 238 241 241 241
107 117 128 132 134 132 138 145 143 139 145 151 143 138 149 166 180 186 193 200 202 203 204 206 207 209 211 213 213 216 219 219 218 216 218 222 225 230 231 232 233 236 240 242 241 241 243 245 244 242 243 246 246 245 243 241 241 239 237 238 239 239 239
115 118 122 122 122 118 111 111 115 121 133 142 137 134 133 137 157 174 187 199 205 208 209 210 210 211 212 212 213 216 220 222 222 220 220 222 226 230 231 232 234 236 239 242 244 243 243 245 245 242 243 245 244 242 240 239 240 238 236 239 240 238 237
113 107 99 96 105 110 102 97 98 99 107 122 132 140 139 145 164 170 178 194 202 204 205 207 210 212 211 212 214 216 218 222 225 225 226 226 228 231 233 235 236 236 239 242 245 246 244 246 246 243 243 244 243 242 240 240 241 240 239 240 242 242 241
99 99 96 91 94 97 95 95 99 104 116 134 144 149 148 151 159 148 149 185 195 193 195 200 204 207 208 212 216 218 217 218 222 227 230 231 232 233 236 238 238 239 240 241 244 247 247 247 247 245 245 247 247 246 246 245 245 245 245 245 245 246 248
102 98 97 93 87 88 91 95 106 115 122 132 147 160 152 134 131 137 157 182 187 188 200 205 201 199 208 216 219 219 218 217 218 222 226 230 233 236 238 240 240 241 242 242 242 244 246 247 247 247 246 249 251 250 250 251 250 249 251 252 250 250 251
101 97 95 90 83 84 88 87 89 100 112 123 140 165 148 108 111 134 157 167 174 189 206 209 199 189 204 218 221 220 219 219 219 218 219 223 228 234 238 241 242 242 244 244 243 244 246 246 247 247 247 248 250 250 251 252 251 251 252 254 254 253 252
95 96 95 89 83 80 80 84 89 97 111 125 123 111 105 107 116 128 136 141 159 187 206 212 204 197 207 218 226 228 225 225 224 218 215 218 223 228 233 238 243 245 246 246 246 247 247 246 246 247 248 249 249 250 251 251 250 249 248 249 251 252 252
90 86 88 90 86 82 79 80 86 93 100 102 97 95 94 94 101 109 115 126 144 169 194 206 202 199 210 221 236 242 237 234 233 228 223 224 226 228 229 232 240 247 248 247 247 249 249 247 246 246 247 249 250 250 250 250 250 249 249 249 249 249 251
97 88 86 88 82 77 79 77 78 83 87 86 84 85 85 85 88 92 97 107 112 114 146 188 198 197 206 221 240 249 245 239 237 237 235 235 235 236 233 232 232 239 247 247 245 246 248 246 246 246 247 248 249 250 249 249 251 253 253 253 253 253 253
107 101 94 90 83 78 77 78 78 77 78 80 79 77 79 81 83 86 88 88 80 73 85 119 148 150 154 178 213 232 238 240 241 247 253 254 254 252 247 242 237 236 247 250 241 236 239 241 241 242 245 248 249 250 250 250 252 254 255 256 257 258 257
111 111 107 99 91 84 76 74 78 78 78 81 81 78 77 79 80 81 83 84 80 73 74 83 90 91 93 94 93 109 129 143 175 204 245 275 288 279 262 255 253 251 254 256 250 238 232 233 234 237 241 245 248 250 251 252 254 255 256 257 258 259 259
112 111 109 103 97 91 82 76 78 82 84 85 85 83 81 81 81 81 81 84 85 83 78 75 74 72 70 65 58 64 72 74 83 93 98 106 60 355 266 250 254 254 250 252 253 248 238 231 231 235 238 241 245 249 250 253 256 257 258 259 260 260 259
117 114 107 101 97 91 85 82 84 88 90 92 92 90 86 84 85 85 84 82 82 82 80 75 71 67 66 67 62 54 52 54 59 63 57 55 62 59 242 237 248 252 247 245 248 251 250 240 233 234 237 239 243 247 250 252 255 257 258 259 260 261 260
121 117 110 103 97 92 89 92 96 95 94 94 96 94 89 86 86 84 81 77 74 74 74 72 69 65 65 66 64 56 51 51 54 58 56 53 55 58 58 301 283 275 268 263 256 257 263 257 243 238 241 245 246 248 250 251 253 255 256 257 259 260 261
128 122 118 110 102 98 97 99 103 102 97 95 98 98 93 87 83 80 76 72 68 66 65 65 63 61 61 62 60 53 47 48 52 56 57 55 53 51 48 38 20 342 304 294 290 282 278 274 262 251 253 258 261 264 263 259 256 254 254 255 257 260 262
121 119 115 110 105 102 100 102 106 106 102 97 96 100 100 92 82 76 72 68 65 62 60 57 54 52 54 56 55 50 43 42 47 48 48 48 47 45 41 37 36 26 356 320 303 301 299 298 304 307 297 295 298 299 296 287 276 269 265 265 266 267 268
110 111 111 110 108 103 99 100 103 104 103 98 92 95 102 99 89 79 70 64 61 60 57 51 46 44 46 47 47 46 43 41 42 40 37 36 36 36 35 33 34 35 19 349 326 335 354 354 1 7 356 347 345 342 336 327 315 303 292 284 281 280 278
111 110 109 109 108 103 100 101 101 99 98 93 87 89 97 98 92 82 70 61 59 57 51 45 41 39 38 38 38 38 37 36 37 36 33 30 27 27 29 29 34 46 40 16 13 27 33 31 32 33 28 18 10 6 360 351 338 326 319 310 299 296 292
117 115 111 109 108 105 103 102 99 94 89 83 81 85 91 95 90 79 67 61 59 52 43 38 37 39 42 44 42 36 28 23 24 27 28 25 22 25 30 30 34 54 67 55 52 51 47 45 45 43 40 36 30 24 15 8 1 349 341 339 331 319 313
114 113 111 111 110 106 102 98 94 89 84 80 81 82 83 89 85 72 63 58 52 42 33 29 32 40 48 51 44 36 29 23 18 18 22 23 22 27 38 40 42 56 67 59 51 47 43 41 40 37 35 36 35 31 22 15 11 6 2 5 2 351 344
109 109 109 110 110 108 104 98 94 91 85 80 79 74 68 75 71 59 54 51 43 31 20 16 20 27 36 40 34 28 28 27 18 11 11 17 21 26 37 45 49 54 55 47 39 36 36 34 30 26 25 28 32 32 29 24 18 10 4 5 9 8 6
112 110 110 109 109 110 108 101 94 90 85 78 73 66 56 54 52 45 43 41 33 20 8 1 360 2 9 16 18 19 20 21 18 10 4 8 17 20 23 31 38 40 38 34 29 29 31 29 25 19 16 17 21 23 22 20 20 20 15 10 9 11 8
114 113 113 112 112 113 112 106 99 92 87 79 72 67 59 52 49 43 36 29 20 13 7 359 351 348 350 355 360 4 7 8 10 8 360 1 10 17 18 20 24 26 25 24 24 25 25 25 23 19 15 13 12 12 12 10 10 15 18 15 11 8 3
120 118 117 116 118 117 114 110 106 99 93 85 77 73 66 60 57 47 34 25 16 9 6 3 359 352 346 345 349 351 353 356 1 4 358 355 357 5 12 14 13 14 13 14 17 20 19 21 22 21 17 14 10 7 5 2 0 4 9 10 8 6 2
124 124 123 121 121 120 116 112 106 101 97 89 84 80 69 56 49 40 29 23 18 13 7 2 1 359 353 349 346 345 345 348 352 356 356 351 346 349 357 0 2 4 5 7 11 15 19 22 22 18 14 10 6 1 358 356 358 2 4 5 5 5 4
129 128 127 125 124 123 119 111 104 103 100 91 82 74 56 36 24 17 10 4 4 8 6 358 356 356 354 352 349 346 345 346 348 351 351 345 339 338 338 342 350 356 1 4 7 12 19 21 19 15 10 5 359 355 353 355 359 2 0 359 359 1 2
133 131 129 129 129 124 116 107 104 104 98 86 69 50 33 22 17 12 4 357 352 349 345 349 354 355 353 353 352 349 347 346 347 350 351 347 337 331 331 337 346 354 0 5 7 10 15 13 11 9 6 2 358 355 353 356 1 2 358 355 355 356 358
135 135 135 134 132 126 116 111 112 109 98 81 63 41 31 32 33 28 22 16 8 357 350 353 358 358 356 353 348 344 343 342 343 347 350 351 347 334 331 339 349 352 355 0 1 2 4 4 3 1 359 359 2 1 357 358 2 4 2 358 357 357 358
140 142 143 140 133 127 122 122 124 121 107 89 70 55 49 47 42 33 26 22 18 16 13 10 6 2 359 356 351 345 340 338 338 341 343 346 348 339 329 335 345 346 345 344 341 343 349 351 351 353 355 360 4 6 6 9 13 13 10 8 10 13 13
153 152 150 146 140 135 133 135 139 136 125 110 93 78 71 60 45 33 22 16 14 14 13 12 10 6 3 3 2 358 353 345 341 341 340 339 341 339 333 333 337 333 328 327 328 332 337 339 340 346 357 4 5 7 16 22 19 15 13 13 14 18 19
162 157 153 152 152 150 149 149 147 142 134 128 119 106 96 76 46 30 18 11 8 5 2 4 6 5 5 7 5 3 2 1 1 1 356 346 342 342 340 338 336 329 322 319 320 323 327 331 337 345 357 6 6 7 13 13 7 6 7 8 7 5 6